TimeCST,TemperatureF,Dew PointF,Humidity,Sea Level PressureIn,VisibilityMPH,Wind Direction,Wind SpeedMPH,Gust SpeedMPH,PrecipitationIn,Events,Conditions,WindDirDegrees,DateUTC
12:55 AM,7.0,5.0,92,29.92,10.0,SW,5.8,-,N/A,,Clear,220,2013-02-12 06:55:00
1:55 AM,3.9,1.0,88,29.91,10.0,SW,4.6,-,N/A,,Partly Cloudy,220,2013-02-12 07:55:00
2:07 AM,5.0,1.4,85,29.83,10.0,SSW,3.5,-,N/A,,Mostly Cloudy,210,2013-02-12 08:07:00
2:55 AM,9.0,6.1,88,29.90,8.0,SSW,5.8,-,N/A,,Overcast,210,2013-02-12 08:55:00
3:27 AM,10.4,6.8,85,29.81,10.0,SSW,4.6,-,N/A,,Overcast,210,2013-02-12 09:27:00
3:55 AM,10.9,7.0,84,29.88,10.0,SSW,5.8,-,N/A,,Overcast,200,2013-02-12 09:55:00
4:20 AM,10.4,8.6,92,29.80,10.0,SSW,5.8,-,N/A,,Overcast,210,2013-02-12 10:20:00
4:55 AM,12.0,9.0,88,29.87,10.0,South,4.6,-,N/A,,Overcast,190,2013-02-12 10:55:00
5:55 AM,12.9,10.0,88,29.86,10.0,South,3.5,-,N/A,,Overcast,190,2013-02-12 11:55:00
6:55 AM,12.9,10.9,92,29.84,10.0,Variable,4.6,-,N/A,,Overcast,0,2013-02-12 12:55:00
7:55 AM,14.0,12.0,92,29.83,10.0,Variable,3.5,-,N/A,,Overcast,0,2013-02-12 13:55:00
8:55 AM,15.1,12.9,91,29.81,10.0,South,9.2,-,N/A,,Overcast,190,2013-02-12 14:55:00
9:38 AM,17.6,14.0,86,29.73,10.0,South,5.8,-,N/A,,Overcast,180,2013-02-12 15:38:00
9:51 AM,17.6,14.0,86,29.74,10.0,SSW,6.9,-,N/A,,Overcast,200,2013-02-12 15:51:00
9:55 AM,17.1,14.0,88,29.81,10.0,SSW,5.8,-,N/A,,Overcast,200,2013-02-12 15:55:00
10:02 AM,17.6,14.0,86,29.73,10.0,Variable,4.6,-,N/A,,Overcast,0,2013-02-12 16:02:00
10:55 AM,19.9,16.0,85,29.79,10.0,SW,9.2,-,N/A,,Overcast,220,2013-02-12 16:55:00
11:55 AM,23.0,17.1,78,29.78,10.0,SW,10.4,-,N/A,,Overcast,230,2013-02-12 17:55:00
12:37 PM,24.8,17.6,74,29.70,10.0,SW,8.1,16.1,N/A,,Mostly Cloudy,230,2013-02-12 18:37:00
12:55 PM,26.1,18.0,71,29.76,10.0,WSW,8.1,-,N/A,,Scattered Clouds,250,2013-02-12 18:55:00
1:55 PM,28.9,19.0,67,29.75,10.0,WSW,8.1,-,N/A,,Partly Cloudy,250,2013-02-12 19:55:00
2:55 PM,30.0,19.9,66,29.73,10.0,West,8.1,-,N/A,,Clear,260,2013-02-12 20:55:00
3:55 PM,30.9,19.9,64,29.73,10.0,WSW,6.9,-,N/A,,Clear,240,2013-02-12 21:55:00
4:55 PM,28.9,19.9,69,29.72,10.0,SW,9.2,-,N/A,,Scattered Clouds,230,2013-02-12 22:55:00
5:55 PM,27.0,19.0,72,29.71,10.0,SW,8.1,-,N/A,,Partly Cloudy,230,2013-02-12 23:55:00
6:55 PM,25.0,18.0,75,29.72,10.0,WSW,10.4,-,N/A,,Clear,240,2013-02-13 00:55:00
7:55 PM,23.0,17.1,78,29.71,10.0,WSW,8.1,16.1,N/A,,Mostly Cloudy,250,2013-02-13 01:55:00
8:55 PM,21.9,16.0,78,29.71,10.0,WSW,9.2,-,N/A,,Clear,250,2013-02-13 02:55:00
9:55 PM,21.0,16.0,81,29.70,10.0,WSW,8.1,-,N/A,,Clear,240,2013-02-13 03:55:00
10:55 PM,19.9,16.0,85,29.69,10.0,WSW,6.9,-,N/A,,Clear,250,2013-02-13 04:55:00
11:55 PM,18.0,15.1,88,29.69,10.0,SW,6.9,-,N/A,,Mostly Cloudy,220,2013-02-13 05:55:00